Location: Jaite
(41.2884°N, 81.5737°W)
Time: 21:14:20
(UTC+00:00)

Cosmos 1953 - Pass Details

Date: 18 January 2020
Orbit: 539 x 558 km, 82.5° (Epoch: 28 February)

Event Time Altitude Azimuth Distance (km) Brightness Sun altitude
Rises 11:39:07 0° 208° (SSW) 2,715 5.7 -13.0°
Reaches altitude 10° 11:41:26 10° 219° (SW) 1,829 4.8 -12.5°
Maximum altitude 11:45:05 32° 283° (WNW) 959 3.0 -11.9°
Drops below altitude 10° 11:48:46 10° 348° (NNW) 1,851 4.7 -11.2°
Sets 11:51:08 0° 359° (N) 2,753 5.7 -10.8°
